Year,Month,Day,Hour,Minute,Value (Times are PST for temperature in C)
2010,05,23,00,00,9.50
2010,05,23,00,01,9.50
2010,05,23,00,02,9.40
2010,05,23,00,03,9.40
2010,05,23,00,04,9.40
2010,05,23,00,05,9.30
2010,05,23,00,06,9.30
2010,05,23,00,07,9.30
2010,05,23,00,08,9.30
2010,05,23,00,09,9.30
2010,05,23,00,10,9.20
2010,05,23,00,11,9.20
2010,05,23,00,12,9.10
2010,05,23,00,13,9.10
2010,05,23,00,14,9.10
2010,05,23,00,15,9.10
2010,05,23,00,16,9.00
2010,05,23,00,17,9.00
2010,05,23,00,18,9.00
2010,05,23,00,19,8.90
2010,05,23,00,20,8.90
2010,05,23,00,21,8.90
2010,05,23,00,22,8.90
2010,05,23,00,23,8.90
2010,05,23,00,24,8.80
2010,05,23,00,25,8.80
2010,05,23,00,26,8.80
2010,05,23,00,27,8.80
2010,05,23,00,28,8.80
2010,05,23,00,29,8.80
2010,05,23,00,30,8.80
2010,05,23,00,31,8.80
2010,05,23,00,32,8.80
2010,05,23,00,33,8.70
2010,05,23,00,34,8.70
2010,05,23,00,35,8.70
2010,05,23,00,36,8.70
2010,05,23,00,37,8.70
2010,05,23,00,38,8.70
2010,05,23,00,39,8.70
2010,05,23,00,40,8.60
2010,05,23,00,41,8.60
2010,05,23,00,42,8.50
2010,05,23,00,43,8.50
2010,05,23,00,44,8.40
2010,05,23,00,45,8.30
2010,05,23,00,46,8.30
2010,05,23,00,47,8.20
2010,05,23,00,48,8.10
2010,05,23,00,49,8.10
2010,05,23,00,50,8.00
2010,05,23,00,51,7.90
2010,05,23,00,52,7.90
2010,05,23,00,53,7.80
2010,05,23,00,54,7.70
2010,05,23,00,55,7.70
2010,05,23,00,56,7.60
2010,05,23,00,57,7.60
2010,05,23,00,58,7.50
2010,05,23,00,59,7.40
2010,05,23,01,00,7.40
2010,05,23,01,01,7.40
2010,05,23,01,02,7.30
2010,05,23,01,03,7.30
2010,05,23,01,04,7.30
2010,05,23,01,05,7.20
2010,05,23,01,06,7.20
2010,05,23,01,07,7.20
2010,05,23,01,08,7.20
2010,05,23,01,09,7.10
2010,05,23,01,10,7.10
2010,05,23,01,11,7.10
2010,05,23,01,12,7.10
2010,05,23,01,13,7.00
2010,05,23,01,14,7.00
2010,05,23,01,15,7.00
2010,05,23,01,16,7.00
2010,05,23,01,17,6.90
2010,05,23,01,18,6.90
2010,05,23,01,19,6.90
2010,05,23,01,20,6.90
2010,05,23,01,21,6.90
2010,05,23,01,22,7.00
2010,05,23,01,23,7.00
2010,05,23,01,24,7.10
2010,05,23,01,25,7.10
2010,05,23,01,26,7.20
2010,05,23,01,27,7.20
2010,05,23,01,28,7.20
2010,05,23,01,29,7.30
2010,05,23,01,30,7.30
2010,05,23,01,31,7.30
2010,05,23,01,32,7.40
2010,05,23,01,33,7.40
2010,05,23,01,34,7.40
2010,05,23,01,35,7.50
2010,05,23,01,36,7.50
2010,05,23,01,37,7.50
2010,05,23,01,38,7.50
2010,05,23,01,39,7.50
2010,05,23,01,40,7.50
2010,05,23,01,41,7.50
2010,05,23,01,42,7.50
2010,05,23,01,43,7.50
2010,05,23,01,44,7.50
2010,05,23,01,45,7.50
2010,05,23,01,46,7.50
2010,05,23,01,47,7.50
2010,05,23,01,48,7.50
2010,05,23,01,49,7.40
2010,05,23,01,50,7.40
2010,05,23,01,51,7.40
2010,05,23,01,52,7.50
2010,05,23,01,53,7.50
2010,05,23,01,54,7.50
2010,05,23,01,55,7.60
2010,05,23,01,56,7.60
2010,05,23,01,57,7.60
2010,05,23,01,58,7.60
2010,05,23,01,59,7.60
2010,05,23,02,00,7.60
2010,05,23,02,01,7.60
2010,05,23,02,02,7.60
2010,05,23,02,03,7.60
2010,05,23,02,04,7.60
2010,05,23,02,05,7.60
2010,05,23,02,06,7.60
2010,05,23,02,07,7.50
2010,05,23,02,08,7.50
2010,05,23,02,09,7.50
2010,05,23,02,10,7.50
2010,05,23,02,11,7.40
2010,05,23,02,12,7.40
2010,05,23,02,13,7.40
2010,05,23,02,14,7.40
2010,05,23,02,15,7.40
2010,05,23,02,16,7.40
2010,05,23,02,17,7.40
2010,05,23,02,18,7.40
2010,05,23,02,19,7.40
2010,05,23,02,20,7.40
2010,05,23,02,21,7.40
2010,05,23,02,22,7.40
2010,05,23,02,23,7.40
2010,05,23,02,24,7.40
2010,05,23,02,25,7.40
2010,05,23,02,26,7.40
2010,05,23,02,27,7.40
2010,05,23,02,28,7.40
2010,05,23,02,29,7.40
2010,05,23,02,30,7.40
2010,05,23,02,31,7.40
2010,05,23,02,32,7.40
2010,05,23,02,33,7.40
2010,05,23,02,34,7.40
2010,05,23,02,35,7.40
2010,05,23,02,36,7.40
2010,05,23,02,37,7.50
2010,05,23,02,38,7.50
2010,05,23,02,39,7.50
2010,05,23,02,40,7.50
2010,05,23,02,41,7.50
2010,05,23,02,42,7.50
2010,05,23,02,43,7.50
2010,05,23,02,44,7.50
2010,05,23,02,45,7.50
2010,05,23,02,46,7.50
2010,05,23,02,47,7.50
2010,05,23,02,48,7.50
2010,05,23,02,49,7.50
2010,05,23,02,50,7.50
2010,05,23,02,51,7.50
2010,05,23,02,52,7.50
2010,05,23,02,53,7.50
2010,05,23,02,54,7.50
2010,05,23,02,55,7.50
2010,05,23,02,56,7.50
2010,05,23,02,57,7.50
2010,05,23,02,58,7.50
2010,05,23,02,59,7.50
2010,05,23,03,00,7.50
2010,05,23,03,01,7.50
2010,05,23,03,02,7.50
2010,05,23,03,03,7.60
2010,05,23,03,04,7.50
2010,05,23,03,05,7.50
2010,05,23,03,06,7.50
2010,05,23,03,07,7.50
2010,05,23,03,08,7.60
2010,05,23,03,09,7.50
2010,05,23,03,10,7.50
2010,05,23,03,11,7.50
2010,05,23,03,12,7.50
2010,05,23,03,13,7.50
2010,05,23,03,14,7.50
2010,05,23,03,15,7.50
2010,05,23,03,16,7.50
2010,05,23,03,17,7.50
2010,05,23,03,18,7.50
2010,05,23,03,19,7.50
2010,05,23,03,20,7.50
2010,05,23,03,21,7.50
2010,05,23,03,22,7.50
2010,05,23,03,23,7.50
2010,05,23,03,24,7.50
2010,05,23,03,25,7.40
2010,05,23,03,26,7.40
2010,05,23,03,27,7.40
2010,05,23,03,28,7.30
2010,05,23,03,29,7.30
2010,05,23,03,30,7.30
2010,05,23,03,31,7.30
2010,05,23,03,32,7.20
2010,05,23,03,33,7.20
2010,05,23,03,34,7.20
2010,05,23,03,35,7.20
2010,05,23,03,36,7.20
2010,05,23,03,37,7.10
2010,05,23,03,38,7.10
2010,05,23,03,39,7.10
2010,05,23,03,40,7.10
2010,05,23,03,41,7.10
2010,05,23,03,42,7.10
2010,05,23,03,43,7.10
2010,05,23,03,44,7.10
2010,05,23,03,45,7.00
2010,05,23,03,46,7.00
2010,05,23,03,47,7.00
2010,05,23,03,48,6.90
2010,05,23,03,49,6.90
2010,05,23,03,50,6.90
2010,05,23,03,51,6.90
2010,05,23,03,52,6.90
2010,05,23,03,53,6.80
2010,05,23,03,54,6.80
2010,05,23,03,55,6.80
2010,05,23,03,56,6.80
2010,05,23,03,57,6.80
2010,05,23,03,58,6.70
2010,05,23,03,59,6.70
2010,05,23,04,00,6.70
2010,05,23,04,01,6.70
2010,05,23,04,02,6.60
2010,05,23,04,03,6.60
2010,05,23,04,04,6.60
2010,05,23,04,05,6.60
2010,05,23,04,06,6.60
2010,05,23,04,07,6.60
2010,05,23,04,08,6.60
2010,05,23,04,09,6.60
2010,05,23,04,10,6.60
2010,05,23,04,11,6.60
2010,05,23,04,12,6.60
2010,05,23,04,13,6.70
2010,05,23,04,14,6.70
2010,05,23,04,15,6.70
2010,05,23,04,16,6.70
2010,05,23,04,17,6.60
2010,05,23,04,18,6.70
2010,05,23,04,19,6.70
2010,05,23,04,20,6.70
2010,05,23,04,21,6.70
2010,05,23,04,22,6.70
2010,05,23,04,23,6.70
2010,05,23,04,24,6.70
2010,05,23,04,25,6.70
2010,05,23,04,26,6.70
2010,05,23,04,27,6.70
2010,05,23,04,28,6.70
2010,05,23,04,29,6.70
2010,05,23,04,30,6.80
2010,05,23,04,31,6.70
2010,05,23,04,32,6.70
2010,05,23,04,33,6.70
2010,05,23,04,34,6.70
2010,05,23,04,35,6.80
2010,05,23,04,36,6.70
2010,05,23,04,37,6.70
2010,05,23,04,38,6.80
2010,05,23,04,39,6.80
2010,05,23,04,40,6.70
2010,05,23,04,41,6.70
2010,05,23,04,42,6.80
2010,05,23,04,43,6.70
2010,05,23,04,44,6.70
2010,05,23,04,45,6.70
2010,05,23,04,46,6.80
2010,05,23,04,47,6.70
2010,05,23,04,48,6.70
2010,05,23,04,49,6.70
2010,05,23,04,50,6.70
2010,05,23,04,51,6.80
2010,05,23,04,52,6.80
2010,05,23,04,53,6.80
2010,05,23,04,54,6.80
2010,05,23,04,55,6.80
2010,05,23,04,56,6.80
2010,05,23,04,57,6.80
2010,05,23,04,58,6.80
2010,05,23,04,59,6.80
2010,05,23,05,00,6.80
2010,05,23,05,01,6.80
2010,05,23,05,02,6.80
2010,05,23,05,03,6.80
2010,05,23,05,04,6.80
2010,05,23,05,05,6.80
2010,05,23,05,06,6.80
2010,05,23,05,07,6.80
2010,05,23,05,08,6.80
2010,05,23,05,09,6.80
2010,05,23,05,10,6.80
2010,05,23,05,11,6.80
2010,05,23,05,12,6.80
2010,05,23,05,13,6.80
2010,05,23,05,14,6.80
2010,05,23,05,15,6.80
2010,05,23,05,16,6.80
2010,05,23,05,17,6.80
2010,05,23,05,18,6.80
2010,05,23,05,19,6.80
2010,05,23,05,20,6.80
2010,05,23,05,21,6.80
2010,05,23,05,22,6.80
2010,05,23,05,23,6.80
2010,05,23,05,24,6.80
2010,05,23,05,25,6.80
2010,05,23,05,26,6.80
2010,05,23,05,27,6.80
2010,05,23,05,28,6.80
2010,05,23,05,29,6.80
2010,05,23,05,30,6.80
2010,05,23,05,31,6.90
2010,05,23,05,32,6.90
2010,05,23,05,33,6.90
2010,05,23,05,34,6.90
2010,05,23,05,35,6.90
2010,05,23,05,36,6.90
2010,05,23,05,37,6.90
2010,05,23,05,38,6.90
2010,05,23,05,39,6.90
2010,05,23,05,40,6.90
2010,05,23,05,41,6.90
2010,05,23,05,42,7.00
2010,05,23,05,43,7.00
2010,05,23,05,44,7.00
2010,05,23,05,45,7.00
2010,05,23,05,46,7.00
2010,05,23,05,47,7.00
2010,05,23,05,48,7.00
2010,05,23,05,49,7.10
2010,05,23,05,50,7.10
2010,05,23,05,51,7.10
2010,05,23,05,52,7.10
2010,05,23,05,53,7.10
2010,05,23,05,54,7.10
2010,05,23,05,55,7.10
2010,05,23,05,56,7.10
2010,05,23,05,57,7.10
2010,05,23,05,58,7.10
2010,05,23,05,59,7.10
2010,05,23,06,00,7.10
2010,05,23,06,01,7.10
2010,05,23,06,02,7.10
2010,05,23,06,03,7.10
2010,05,23,06,04,7.10
2010,05,23,06,05,7.10
2010,05,23,06,06,7.20
2010,05,23,06,07,7.20
2010,05,23,06,08,7.20
2010,05,23,06,09,7.20
2010,05,23,06,10,7.20
2010,05,23,06,11,7.20
2010,05,23,06,12,7.20
2010,05,23,06,13,7.20
2010,05,23,06,14,7.20
2010,05,23,06,15,7.20
2010,05,23,06,16,7.20
2010,05,23,06,17,7.20
2010,05,23,06,18,7.20
2010,05,23,06,19,7.20
2010,05,23,06,20,7.30
2010,05,23,06,21,7.30
2010,05,23,06,22,7.30
2010,05,23,06,23,7.30
2010,05,23,06,24,7.30
2010,05,23,06,25,7.30
2010,05,23,06,26,7.40
2010,05,23,06,27,7.40
2010,05,23,06,28,7.40
2010,05,23,06,29,7.40
2010,05,23,06,30,7.50
2010,05,23,06,31,7.50
2010,05,23,06,32,7.50
2010,05,23,06,33,7.60
2010,05,23,06,34,7.60
2010,05,23,06,35,7.60
2010,05,23,06,36,7.70
2010,05,23,06,37,7.70
2010,05,23,06,38,7.70
2010,05,23,06,39,7.70
2010,05,23,06,40,7.80
2010,05,23,06,41,7.80
2010,05,23,06,42,7.80
2010,05,23,06,43,7.80
2010,05,23,06,44,7.90
2010,05,23,06,45,7.90
2010,05,23,06,46,7.90
2010,05,23,06,47,8.00
2010,05,23,06,48,8.00
2010,05,23,06,49,8.00
2010,05,23,06,50,8.10
2010,05,23,06,51,8.10
2010,05,23,06,52,8.10
2010,05,23,06,53,8.20
2010,05,23,06,54,8.20
2010,05,23,06,55,8.20
2010,05,23,06,56,8.20
2010,05,23,06,57,8.20
2010,05,23,06,58,8.20
2010,05,23,06,59,8.20
2010,05,23,07,00,8.30
2010,05,23,07,01,8.30
2010,05,23,07,02,8.30
2010,05,23,07,03,8.30
2010,05,23,07,04,8.40
2010,05,23,07,05,8.40
2010,05,23,07,06,8.40
2010,05,23,07,07,8.40
2010,05,23,07,08,8.40
2010,05,23,07,09,8.50
2010,05,23,07,10,8.50
2010,05,23,07,11,8.50
2010,05,23,07,12,8.60
2010,05,23,07,13,8.60
2010,05,23,07,14,8.60
2010,05,23,07,15,8.60
2010,05,23,07,16,8.70
2010,05,23,07,17,8.70
2010,05,23,07,18,8.70
2010,05,23,07,19,8.80
2010,05,23,07,20,8.80
2010,05,23,07,21,8.80
2010,05,23,07,22,8.80
2010,05,23,07,23,8.90
2010,05,23,07,24,8.90
2010,05,23,07,25,8.90
2010,05,23,07,26,8.90
2010,05,23,07,27,8.90
2010,05,23,07,28,8.90
2010,05,23,07,29,9.00
2010,05,23,07,30,9.00
2010,05,23,07,31,9.00
2010,05,23,07,32,9.00
2010,05,23,07,33,9.10
2010,05,23,07,34,9.10
2010,05,23,07,35,9.10
2010,05,23,07,36,9.10
2010,05,23,07,37,9.20
2010,05,23,07,38,9.20
2010,05,23,07,39,9.20
2010,05,23,07,40,9.20
2010,05,23,07,41,9.20
2010,05,23,07,42,9.20
2010,05,23,07,43,9.20
2010,05,23,07,44,9.20
2010,05,23,07,45,9.30
2010,05,23,07,46,9.30
2010,05,23,07,47,9.30
2010,05,23,07,48,9.30
2010,05,23,07,49,9.30
2010,05,23,07,50,9.30
2010,05,23,07,51,9.40
2010,05,23,07,52,9.40
2010,05,23,07,53,9.40
2010,05,23,07,54,9.40
2010,05,23,07,55,9.40
2010,05,23,07,56,9.40
2010,05,23,07,57,9.40
2010,05,23,07,58,9.40
2010,05,23,07,59,9.50
2010,05,23,08,00,9.50
2010,05,23,08,01,9.60
2010,05,23,08,02,9.60
2010,05,23,08,03,9.60
2010,05,23,08,04,9.60
2010,05,23,08,05,9.60
2010,05,23,08,06,9.70
2010,05,23,08,07,9.70
2010,05,23,08,08,9.80
2010,05,23,08,09,9.80
2010,05,23,08,10,9.80
2010,05,23,08,11,9.80
2010,05,23,08,12,9.90
2010,05,23,08,13,9.90
2010,05,23,08,14,9.90
2010,05,23,08,15,9.90
2010,05,23,08,16,10.00
2010,05,23,08,17,10.00
2010,05,23,08,18,10.10
2010,05,23,08,19,10.10
2010,05,23,08,20,10.10
2010,05,23,08,21,10.20
2010,05,23,08,22,10.20
2010,05,23,08,23,10.20
2010,05,23,08,24,10.30
2010,05,23,08,25,10.30
2010,05,23,08,26,10.40
2010,05,23,08,27,10.40
2010,05,23,08,28,10.50
2010,05,23,08,29,10.50
2010,05,23,08,30,10.60
2010,05,23,08,31,10.60
2010,05,23,08,32,10.60
2010,05,23,08,33,10.70
2010,05,23,08,34,10.70
2010,05,23,08,35,10.80
2010,05,23,08,36,10.80
2010,05,23,08,37,10.80
2010,05,23,08,38,10.80
2010,05,23,08,39,10.80
2010,05,23,08,40,10.80
2010,05,23,08,41,10.90
2010,05,23,08,42,10.80
2010,05,23,08,43,10.80
2010,05,23,08,44,10.80
2010,05,23,08,45,10.80
2010,05,23,08,46,10.80
2010,05,23,08,47,10.80
2010,05,23,08,48,10.90
2010,05,23,08,49,10.90
2010,05,23,08,50,10.90
2010,05,23,08,51,10.90
2010,05,23,08,52,10.90
2010,05,23,08,53,11.00
2010,05,23,08,54,11.00
2010,05,23,08,55,11.10
2010,05,23,08,56,11.10
2010,05,23,08,57,11.20
2010,05,23,08,58,11.20
2010,05,23,08,59,11.30
2010,05,23,09,00,11.40
2010,05,23,09,01,11.50
2010,05,23,09,02,11.60
2010,05,23,09,03,11.60
2010,05,23,09,04,11.70
2010,05,23,09,05,11.70
2010,05,23,09,06,11.80
2010,05,23,09,07,11.80
2010,05,23,09,08,11.80
2010,05,23,09,09,11.70
2010,05,23,09,10,11.60
2010,05,23,09,11,11.60
2010,05,23,09,12,11.60
2010,05,23,09,13,11.60
2010,05,23,09,14,11.60
2010,05,23,09,15,11.70
2010,05,23,09,16,11.70
2010,05,23,09,17,11.70
2010,05,23,09,18,11.70
2010,05,23,09,19,11.60
2010,05,23,09,20,11.50
2010,05,23,09,21,11.40
2010,05,23,09,22,11.40
2010,05,23,09,23,11.30
2010,05,23,09,24,11.30
2010,05,23,09,25,11.30
2010,05,23,09,26,11.30
2010,05,23,09,27,11.30
2010,05,23,09,28,11.40
2010,05,23,09,29,11.50
2010,05,23,09,30,11.60
2010,05,23,09,31,11.60
2010,05,23,09,32,11.50
2010,05,23,09,33,11.40
2010,05,23,09,34,11.30
2010,05,23,09,35,11.30
2010,05,23,09,36,11.30
2010,05,23,09,37,11.30
2010,05,23,09,38,11.20
2010,05,23,09,39,11.20
2010,05,23,09,40,11.20
2010,05,23,09,41,11.10
2010,05,23,09,42,11.10
2010,05,23,09,43,11.20
2010,05,23,09,44,11.20
2010,05,23,09,45,11.30
2010,05,23,09,46,11.40
2010,05,23,09,47,11.60
2010,05,23,09,48,11.60
2010,05,23,09,49,11.60
2010,05,23,09,50,11.60
2010,05,23,09,51,11.60
2010,05,23,09,52,11.60
2010,05,23,09,53,11.70
2010,05,23,09,54,11.80
2010,05,23,09,55,11.80
2010,05,23,09,56,11.80
2010,05,23,09,57,11.80
2010,05,23,09,58,11.90
2010,05,23,09,59,11.80
2010,05,23,10,00,11.90
2010,05,23,10,01,11.90
2010,05,23,10,02,11.90
2010,05,23,10,03,11.90
2010,05,23,10,04,11.80
2010,05,23,10,05,11.80
2010,05,23,10,06,11.90
2010,05,23,10,07,12.00
2010,05,23,10,08,12.10
2010,05,23,10,09,12.30
2010,05,23,10,10,12.40
2010,05,23,10,11,12.40
2010,05,23,10,12,12.40
2010,05,23,10,13,12.50
2010,05,23,10,14,12.60
2010,05,23,10,15,12.60
2010,05,23,10,16,12.60
2010,05,23,10,17,12.60
2010,05,23,10,18,12.50
2010,05,23,10,19,12.30
2010,05,23,10,20,12.30
2010,05,23,10,21,12.20
2010,05,23,10,22,12.30
2010,05,23,10,23,12.20
2010,05,23,10,24,12.20
2010,05,23,10,25,12.10
2010,05,23,10,26,12.10
2010,05,23,10,27,12.10
2010,05,23,10,28,12.10
2010,05,23,10,29,12.10
2010,05,23,10,30,12.10
2010,05,23,10,31,12.00
2010,05,23,10,32,12.00
2010,05,23,10,33,12.00
2010,05,23,10,34,12.00
2010,05,23,10,35,11.90
2010,05,23,10,36,11.90
2010,05,23,10,37,11.90
2010,05,23,10,38,11.90
2010,05,23,10,39,11.90
2010,05,23,10,40,11.90
2010,05,23,10,41,11.80
2010,05,23,10,42,11.80
2010,05,23,10,43,11.80
2010,05,23,10,44,11.80
2010,05,23,10,45,11.80
2010,05,23,10,46,11.80
2010,05,23,10,47,11.80
2010,05,23,10,48,11.80
2010,05,23,10,49,11.80
2010,05,23,10,50,11.80
2010,05,23,10,51,11.80
2010,05,23,10,52,11.80
2010,05,23,10,53,11.80
2010,05,23,10,54,11.90
2010,05,23,10,55,11.90
2010,05,23,10,56,11.90
2010,05,23,10,57,11.90
2010,05,23,10,58,11.90
2010,05,23,10,59,11.90
2010,05,23,11,00,12.00
2010,05,23,11,01,12.00
2010,05,23,11,02,12.00
2010,05,23,11,03,12.10
2010,05,23,11,04,12.10
2010,05,23,11,05,12.10
2010,05,23,11,06,12.10
2010,05,23,11,07,12.20
2010,05,23,11,08,12.20
2010,05,23,11,09,12.20
2010,05,23,11,10,12.20
2010,05,23,11,11,12.20
2010,05,23,11,12,12.30
2010,05,23,11,13,12.30
2010,05,23,11,14,12.30
2010,05,23,11,15,12.30
2010,05,23,11,16,12.40
2010,05,23,11,17,12.30
2010,05,23,11,18,12.30
2010,05,23,11,19,12.30
2010,05,23,11,20,12.30
2010,05,23,11,21,12.30
2010,05,23,11,22,12.20
2010,05,23,11,23,12.20
2010,05,23,11,24,12.10
2010,05,23,11,25,12.00
2010,05,23,11,26,12.00
2010,05,23,11,27,11.90
2010,05,23,11,28,11.90
2010,05,23,11,29,11.80
2010,05,23,11,30,11.80
2010,05,23,11,31,11.70
2010,05,23,11,32,11.60
2010,05,23,11,33,11.50
2010,05,23,11,34,11.50
2010,05,23,11,35,11.50
2010,05,23,11,36,11.40
2010,05,23,11,37,11.40
2010,05,23,11,38,11.40
2010,05,23,11,39,11.40
2010,05,23,11,40,11.40
2010,05,23,11,41,11.40
2010,05,23,11,42,11.40
2010,05,23,11,43,11.40
2010,05,23,11,44,11.50
2010,05,23,11,45,11.50
2010,05,23,11,46,11.50
2010,05,23,11,47,11.50
2010,05,23,11,48,11.50
2010,05,23,11,49,11.50
2010,05,23,11,50,11.50
2010,05,23,11,51,11.50
2010,05,23,11,52,11.50
2010,05,23,11,53,11.50
2010,05,23,11,54,11.50
2010,05,23,11,55,11.50
2010,05,23,11,56,11.40
2010,05,23,11,57,11.40
2010,05,23,11,58,11.40
2010,05,23,11,59,11.30
2010,05,23,12,00,11.30
2010,05,23,12,01,11.30
2010,05,23,12,02,11.30
2010,05,23,12,03,11.40
2010,05,23,12,04,11.40
2010,05,23,12,05,11.40
2010,05,23,12,06,11.40
2010,05,23,12,07,11.50
2010,05,23,12,08,11.50
2010,05,23,12,09,11.60
2010,05,23,12,10,11.60
2010,05,23,12,11,11.60
2010,05,23,12,12,11.70
2010,05,23,12,13,11.70
2010,05,23,12,14,11.70
2010,05,23,12,15,11.70
2010,05,23,12,16,11.80
2010,05,23,12,17,11.80
2010,05,23,12,18,11.80
2010,05,23,12,19,11.80
2010,05,23,12,20,11.80
2010,05,23,12,21,11.80
2010,05,23,12,22,11.80
2010,05,23,12,23,11.80
2010,05,23,12,24,11.80
2010,05,23,12,25,11.80
2010,05,23,12,26,11.80
2010,05,23,12,27,11.90
2010,05,23,12,28,11.90
2010,05,23,12,29,12.00
2010,05,23,12,30,12.10
2010,05,23,12,31,12.20
2010,05,23,12,32,12.20
2010,05,23,12,33,12.30
2010,05,23,12,34,12.40
2010,05,23,12,35,12.50
2010,05,23,12,36,12.60
2010,05,23,12,37,12.60
2010,05,23,12,38,12.60
2010,05,23,12,39,12.50
2010,05,23,12,40,12.40
2010,05,23,12,41,12.30
2010,05,23,12,42,12.10
2010,05,23,12,43,12.00
2010,05,23,12,44,11.90
2010,05,23,12,45,11.90
2010,05,23,12,46,11.90
2010,05,23,12,47,11.90
2010,05,23,12,48,11.90
2010,05,23,12,49,11.90
2010,05,23,12,50,11.90
2010,05,23,12,51,12.00
2010,05,23,12,52,12.00
2010,05,23,12,53,12.10
2010,05,23,12,54,12.10
2010,05,23,12,55,12.20
2010,05,23,12,56,12.30
2010,05,23,12,57,12.40
2010,05,23,12,58,12.40
2010,05,23,12,59,12.50
2010,05,23,13,00,12.50
2010,05,23,13,01,12.60
2010,05,23,13,02,12.60
2010,05,23,13,03,12.60
2010,05,23,13,04,12.60
2010,05,23,13,05,12.60
2010,05,23,13,06,12.60
2010,05,23,13,07,12.60
2010,05,23,13,08,12.70
2010,05,23,13,09,12.70
2010,05,23,13,10,12.70
2010,05,23,13,11,12.70
2010,05,23,13,12,12.70
2010,05,23,13,13,12.70
2010,05,23,13,14,12.60
2010,05,23,13,15,12.60
2010,05,23,13,16,12.50
2010,05,23,13,17,12.50
2010,05,23,13,18,12.60
2010,05,23,13,19,12.60
2010,05,23,13,20,12.70
2010,05,23,13,21,12.70
2010,05,23,13,22,12.80
2010,05,23,13,23,12.80
2010,05,23,13,24,12.80
2010,05,23,13,25,12.80
2010,05,23,13,26,12.70
2010,05,23,13,27,12.70
2010,05,23,13,28,12.80
2010,05,23,13,29,12.90
2010,05,23,13,30,13.00
2010,05,23,13,31,13.00
2010,05,23,13,32,12.90
2010,05,23,13,33,13.00
2010,05,23,13,34,13.10
2010,05,23,13,35,13.20
2010,05,23,13,36,13.20
2010,05,23,13,37,13.20
2010,05,23,13,38,13.10
2010,05,23,13,39,13.10
2010,05,23,13,40,13.00
2010,05,23,13,41,13.00
2010,05,23,13,42,13.00
2010,05,23,13,43,12.90
2010,05,23,13,44,12.90
2010,05,23,13,45,12.90
2010,05,23,13,46,12.90
2010,05,23,13,47,12.90
2010,05,23,13,48,12.90
2010,05,23,13,49,12.80
2010,05,23,13,50,12.70
2010,05,23,13,51,12.60
2010,05,23,13,52,12.60
2010,05,23,13,53,12.60
2010,05,23,13,54,12.50
2010,05,23,13,55,12.50
2010,05,23,13,56,12.50
2010,05,23,13,57,12.60
2010,05,23,13,58,12.50
2010,05,23,13,59,12.40
2010,05,23,14,00,12.30
2010,05,23,14,01,12.30
2010,05,23,14,02,12.20
2010,05,23,14,03,12.20
2010,05,23,14,04,12.10
2010,05,23,14,05,12.10
2010,05,23,14,06,12.00
2010,05,23,14,07,11.90
2010,05,23,14,08,11.90
2010,05,23,14,09,11.80
2010,05,23,14,10,11.90
2010,05,23,14,11,11.90
2010,05,23,14,12,11.90
2010,05,23,14,13,11.90
2010,05,23,14,14,12.00
2010,05,23,14,15,12.00
2010,05,23,14,16,12.10
2010,05,23,14,17,12.10
2010,05,23,14,18,12.10
2010,05,23,14,19,12.00
2010,05,23,14,20,12.00
2010,05,23,14,21,12.10
2010,05,23,14,22,12.10
2010,05,23,14,23,12.20
2010,05,23,14,24,12.20
2010,05,23,14,25,12.20
2010,05,23,14,26,12.20
2010,05,23,14,27,12.30
2010,05,23,14,28,12.30
2010,05,23,14,29,12.30
2010,05,23,14,30,12.20
2010,05,23,14,31,12.20
2010,05,23,14,32,12.10
2010,05,23,14,33,12.10
2010,05,23,14,34,12.20
2010,05,23,14,35,12.20
2010,05,23,14,36,12.10
2010,05,23,14,37,12.10
2010,05,23,14,38,12.00
2010,05,23,14,39,12.00
2010,05,23,14,40,11.90
2010,05,23,14,41,11.90
2010,05,23,14,42,11.90
2010,05,23,14,43,11.90
2010,05,23,14,44,12.00
2010,05,23,14,45,12.00
2010,05,23,14,46,12.00
2010,05,23,14,47,11.90
2010,05,23,14,48,11.90
2010,05,23,14,49,12.00
2010,05,23,14,50,12.00
2010,05,23,14,51,12.10
2010,05,23,14,52,12.20
2010,05,23,14,53,12.20
2010,05,23,14,54,12.30
2010,05,23,14,55,12.40
2010,05,23,14,56,12.40
2010,05,23,14,57,12.50
2010,05,23,14,58,12.60
2010,05,23,14,59,12.60
2010,05,23,15,00,12.60
2010,05,23,15,01,12.60
2010,05,23,15,02,12.80
2010,05,23,15,03,12.90
2010,05,23,15,04,12.80
2010,05,23,15,05,12.70
2010,05,23,15,06,12.60
2010,05,23,15,07,12.50
2010,05,23,15,08,12.50
2010,05,23,15,09,12.40
2010,05,23,15,10,12.30
2010,05,23,15,11,12.30
2010,05,23,15,12,12.30
2010,05,23,15,13,12.20
2010,05,23,15,14,12.20
2010,05,23,15,15,12.30
2010,05,23,15,16,12.30
2010,05,23,15,17,12.20
2010,05,23,15,18,12.10
2010,05,23,15,19,12.10
2010,05,23,15,20,12.10
2010,05,23,15,21,12.00
2010,05,23,15,22,12.00
2010,05,23,15,23,12.00
2010,05,23,15,24,12.10
2010,05,23,15,25,12.10
2010,05,23,15,26,12.20
2010,05,23,15,27,12.20
2010,05,23,15,28,12.20
2010,05,23,15,29,12.30
2010,05,23,15,30,12.30
2010,05,23,15,31,12.40
2010,05,23,15,32,12.30
2010,05,23,15,33,12.30
2010,05,23,15,34,12.30
2010,05,23,15,35,12.30
2010,05,23,15,36,12.30
2010,05,23,15,37,12.30
2010,05,23,15,38,12.30
2010,05,23,15,39,12.30
2010,05,23,15,40,12.40
2010,05,23,15,41,12.40
2010,05,23,15,42,12.40
2010,05,23,15,43,12.40
2010,05,23,15,44,12.40
2010,05,23,15,45,12.40
2010,05,23,15,46,12.50
2010,05,23,15,47,12.60
2010,05,23,15,48,12.60
2010,05,23,15,49,12.70
2010,05,23,15,50,12.80
2010,05,23,15,51,12.70
2010,05,23,15,52,12.70
2010,05,23,15,53,12.70
2010,05,23,15,54,12.80
2010,05,23,15,55,12.90
2010,05,23,15,56,12.80
2010,05,23,15,57,12.80
2010,05,23,15,58,12.80
2010,05,23,15,59,12.80
2010,05,23,16,00,12.90
2010,05,23,16,01,12.90
2010,05,23,16,02,13.00
2010,05,23,16,03,13.10
2010,05,23,16,04,13.10
2010,05,23,16,05,13.10
2010,05,23,16,06,13.10
2010,05,23,16,07,13.10
2010,05,23,16,08,13.10
2010,05,23,16,09,13.20
2010,05,23,16,10,13.20
2010,05,23,16,11,13.20
2010,05,23,16,12,13.10
2010,05,23,16,13,13.10
2010,05,23,16,14,13.10
2010,05,23,16,15,13.10
2010,05,23,16,16,13.10
2010,05,23,16,17,13.00
2010,05,23,16,18,12.90
2010,05,23,16,19,12.90
2010,05,23,16,20,12.80
2010,05,23,16,21,12.90
2010,05,23,16,22,13.00
2010,05,23,16,23,13.00
2010,05,23,16,24,13.00
2010,05,23,16,25,13.00
2010,05,23,16,26,13.20
2010,05,23,16,27,13.30
2010,05,23,16,28,13.40
2010,05,23,16,29,13.40
2010,05,23,16,30,13.50
2010,05,23,16,31,13.40
2010,05,23,16,32,13.40
2010,05,23,16,33,13.40
2010,05,23,16,34,13.40
2010,05,23,16,35,13.50
2010,05,23,16,36,13.60
2010,05,23,16,37,13.60
2010,05,23,16,38,13.50
2010,05,23,16,39,13.40
2010,05,23,16,40,13.40
2010,05,23,16,41,13.40
2010,05,23,16,42,13.40
2010,05,23,16,43,13.50
2010,05,23,16,44,13.70
2010,05,23,16,45,13.80
2010,05,23,16,46,13.80
2010,05,23,16,47,13.70
2010,05,23,16,48,13.70
2010,05,23,16,49,13.60
2010,05,23,16,50,13.50
2010,05,23,16,51,13.40
2010,05,23,16,52,13.30
2010,05,23,16,53,13.30
2010,05,23,16,54,13.30
2010,05,23,16,55,13.30
2010,05,23,16,56,13.40
2010,05,23,16,57,13.40
2010,05,23,16,58,13.50
2010,05,23,16,59,13.50
2010,05,23,17,00,13.50
2010,05,23,17,01,13.50
2010,05,23,17,02,13.40
2010,05,23,17,03,13.40
2010,05,23,17,04,13.30
2010,05,23,17,05,13.20
2010,05,23,17,06,13.20
2010,05,23,17,07,13.20
2010,05,23,17,08,13.30
2010,05,23,17,09,13.30
2010,05,23,17,10,13.30
2010,05,23,17,11,13.30
2010,05,23,17,12,13.20
2010,05,23,17,13,13.20
2010,05,23,17,14,13.20
2010,05,23,17,15,13.20
2010,05,23,17,16,13.30
2010,05,23,17,17,13.30
2010,05,23,17,18,13.20
2010,05,23,17,19,13.10
2010,05,23,17,20,13.00
2010,05,23,17,21,12.90
2010,05,23,17,22,12.80
2010,05,23,17,23,12.80
2010,05,23,17,24,12.90
2010,05,23,17,25,12.90
2010,05,23,17,26,12.90
2010,05,23,17,27,13.00
2010,05,23,17,28,13.00
2010,05,23,17,29,13.10
2010,05,23,17,30,13.10
2010,05,23,17,31,13.10
2010,05,23,17,32,13.10
2010,05,23,17,33,13.10
2010,05,23,17,34,13.10
2010,05,23,17,35,13.20
2010,05,23,17,36,13.20
2010,05,23,17,37,13.20
2010,05,23,17,38,13.30
2010,05,23,17,39,13.40
2010,05,23,17,40,13.50
2010,05,23,17,41,13.40